Location: Bremen
(53.0793°N, 8.8017°E)
Time: 12:00:13
(UTC+01:00)

Transit 2A - Pass Details

Date: 07 December 2021
Orbit: 591 x 967 km, 66.7° (Epoch: 23 January)

Event Time Altitude Azimuth Distance (km) Brightness Sun altitude
Exits shadow 03:18:12 16° 30° (NNE) 2,279 8.8 -44.1°
Drops below altitude 10° 03:19:51 10° 41° (NE) 2,714 9.3 -43.9°
Sets 03:22:55 0° 54° (NE) 3,664 10.3 -43.5°
